FENGYUN 1C DEB

Satellite information

Favourite Embed

Satellite Type and Status

DEBRISDECAYED

Key statistics

Satellite FENGYUN 1C DEB at a glance.

Uptime

9640

Days in orbit

Revolutions

≈ 15.8

Per day

Orbit

SSO

Sun Synchronous Orbit

Inclination

99.1

Latest

Satellite identification and parameters

Extended collection of information and parameters for FENGYUN 1C DEB.

Object identification

Identified? True

Debris? True

Object name: FENGYUN 1C DEB

International designator: 1999-025BBS

Object number (NORAD): 30976

Object ID (CCSDS): 30976

Country: PEOPLES REPUBLIC OF CHINA (PRC)

Current information (Y/N): Y

RCS size: SMALL

Orbital parameters

Decay date: Sept. 30, 2025

Period: 90.904 minutes

Inclination: 99.085 deg

SMA: 6697.01 km

Apoapsis: 328.933 km

Periapsis: 308.816 km

RAAN: 161.9802 deg

Eccentricy: 0.0015019

Argument of periapsis: 126.1151 deg

Mean anomaly: 234.1506 deg

Mean motion: 15.84095584 rev/day

Mean motion (dot): 0.15126391 rev/day2

B* drag term: 0.051131 1/REarth

Two-line elements (TLE)

Creation date: Oct. 7, 2025, 11:36 p.m.

Reference frame: TEME

Reference center: EARTH

Epoch: Sept. 29, 2025, 10:06 p.m. UTC

TLE line 0: 0 FENGYUN 1C DEB

TLE line 1: 1 30976U 99025BBS 25272.92126911 .15126391 00000-0 51131-1 0 9999

TLE line 2: 2 30976 99.0850 161.9802 0015019 126.1151 234.1506 15.84095584638825

Live tracking on map

Satellite FENGYUN 1C DEB has decayed and is no longer in orbit. No tracking available.

In-orbit conjunctions

Satellite FENGYUN 1C DEB has decayed and is no longer in orbit. No conjunctions available.

Associated space launch

Chinese polar orbiting meteorological satellite

FENGYUN 1C DEB was lifted into orbit during the mission ‘Long March 4B | Feng Yun 1C’, on board a Long March 4B space rocket.

The launch took place on May 10, 1999, 1:33 a.m. from Launch Complex 7.

For more information about the launch, click the button.

Launch to space Long March 4B | Feng Yun 1C
Long March 4B | Feng Yun 1C

Agency: N/A

Status: Launch Successful

Launch date: May 10, 1999, 1:33 a.m. UTC

Rocket: Long March 4B

Launch pad: Launch Complex 7

Location: Taiyuan Satellite Launch Center, People's Republic of China

...

Latest news about this satellite

There are no fresh news available about this satellite. Check back as we update our databases every day.


Newsletter sign-up

Weekly statistics, charts and insights to help you stay on top of the space industry.